Location: Chuathbaluk
(61.5726°N, 159.2454°W)
Time: 01:52:37
(UTC+00:00)

Vanguard 3 - Visible Passes

Search period start: 04 December 2021 00:00
Search period end: 14 December 2021 00:00
Orbit: 509 x 3260 km, 33.4° (Epoch: 03 December)

Date Brightness Start Highest point End Pass type
(mag) Time Alt. Az. Time Alt. Az. Time Alt. Az.
04 Dec 11.4 12:40:34 10° SSE 12:46:44 13° SE 12:53:03 10° SE visible
04 Dec 11.1 14:45:54 10° SSW 14:58:04 21° SSE 15:08:32 10° SE visible
04 Dec 11.1 16:57:57 10° SW 17:09:35 21° SSW 17:18:55 10° SSE visible
05 Dec 11.2 13:35:17 14° S 13:43:09 18° SSE 13:53:21 10° ESE visible
05 Dec 11.0 15:41:57 10° SW 15:54:49 23° S 16:05:34 10° SE visible
05 Dec 11.1 17:56:06 10° WSW 18:05:59 18° SSW 18:14:05 10° S visible
06 Dec 11.3 12:25:19 14° SSE 12:28:24 14° SE 12:36:33 10° ESE visible
06 Dec 11.1 14:29:52 14° SSW 14:39:50 22° S 14:51:20 10° SE visible
06 Dec 11.0 16:39:08 10° SW 16:51:30 22° SSW 17:01:42 10° SSE visible
07 Dec 11.1 13:19:49 18° S 13:24:50 20° SSE 13:36:05 10° ESE visible
07 Dec 11.0 15:24:22 12° SW 15:36:37 24° S 15:48:14 10° SE visible
07 Dec 11.1 17:37:25 10° WSW 17:47:54 18° SSW 17:56:41 10° S visible
08 Dec 11.2 12:09:43 16° SSE 12:10:01 16° SE 12:19:26 10° ESE visible
08 Dec 11.0 14:14:15 19° SSW 14:21:31 24° S 14:33:52 10° SE visible
08 Dec 11.0 16:20:29 10° WSW 16:33:17 22° SSW 16:44:14 10° SSE visible
08 Dec 11.3 18:37:45 10° WSW 18:43:54 13° SW 18:49:25 10° SSW visible
09 Dec 11.0 13:04:05 21° SSE 13:06:27 21° SSE 13:18:31 10° ESE visible
09 Dec 11.0 15:08:37 16° SW 15:18:18 24° S 15:30:40 10° SE visible
09 Dec 11.2 17:18:54 10° WSW 17:29:41 18° SSW 17:39:02 10° S visible
10 Dec 11.2 11:53:52 17° SE 11:53:52 17° SE 12:01:54 10° ESE visible
10 Dec 10.9 13:58:24 22° S 14:03:08 24° S 14:16:09 10° SE visible
10 Dec 11.0 16:02:56 11° WSW 16:14:59 23° SSW 16:26:32 10° SSE visible
10 Dec 11.3 18:19:36 10° WSW 18:25:41 12° SW 18:31:15 10° SSW visible
11 Dec 11.0 12:48:09 22° SSE 12:48:09 22° SSE 13:00:41 10° ESE visible
11 Dec 10.9 14:52:40 20° SSW 14:59:56 25° S 15:12:51 10° SE visible
11 Dec 11.2 17:00:34 10° WSW 17:11:23 18° SSW 17:21:04 10° S visible
12 Dec 11.2 11:37:53 16° SE 11:37:53 16° SE 11:44:01 10° ESE visible
12 Dec 10.8 13:42:24 24° S 13:44:44 25° S 13:58:13 10° SE visible
12 Dec 11.0 15:46:55 15° SW 15:56:37 22° SSW 16:08:34 10° SSE visible
12 Dec 11.3 18:01:50 10° WSW 18:07:22 12° SW 18:12:34 10° SSW visible
13 Dec 11.0 12:32:07 22° SSE 12:32:07 22° SSE 12:42:36 10° ESE visible
13 Dec 10.8 14:36:38 22° SSW 14:41:31 25° S 14:54:48 10° SE visible
13 Dec 11.2 16:42:29 10° WSW 16:53:00 17° SSW 17:02:49 10° S visible
